User: anonymous   Login
Location: Chiroubles
(46.1812°N, 4.6660°E)
Time: 18:22:40
(UTC+00:00)
Language:

USA 238 DEB - Orbit

View from above orbital plane
View from above orbital plane
View from above satellite
View from above satellite

Ground track
Ground track

The orbit data is extracted from the following two-line orbital elements,

1 38773U 12048P   20289.19721520 0.00000000  00000-0  00000-0 0    04
2 38773  63.4289  86.3991 0133890   0.7217 359.2783 13.40810506    04
Epoch (UTC): 15 October 2020 04:43:59
Eccentricity: 0.0133890
inclination: 63.4289°
perigee height: 1006 km
apogee height: 1206 km
right ascension of ascending node: 86.3991°
argument of perigee: 0.7217°
revolutions per day: 13.40810506
mean anomaly at epoch: 359.2783°
orbit number at epoch: 0

The dashed part of the orbit path shows where the satellite is in the earth's shadow,  

DLR